Waarnemingen

Advertentie
Mijn weer
Boulogne, Frankrijk (7002): temperatuur & dauwpunt: 15.01.2018 13:00:00 - 21.01.2018 13:00:00 (CET)Boulogne, Frankrijk (7002): windsnelheid & windstoten: 15.01.2018 13:00:00 - 21.01.2018 13:00:00 (CET)Boulogne, Frankrijk (7002): windrichting: 15.01.2018 13:00:00 - 21.01.2018 13:00:00 (CET)Boulogne, Frankrijk (7002): luchtdruk: 15.01.2018 13:00:00 - 21.01.2018 13:00:00 (CET)Boulogne, Frankrijk (7002): zicht: 15.01.2018 13:00:00 - 21.01.2018 13:00:00 (CET)Boulogne, Frankrijk (7002): neerslag: 15.01.2018 13:00:00 - 21.01.2018 13:00:00 (CET)
Datum & Tijd tt [°C] td [°C] ff [km/u] ff [kn] fx [km/u] fx [kn] dd ppp [hPa] vv [km] rr [mm]
21.01.2018 13:00:00 3,0 1,4 15 8 26 14 ZZO 1016,1 7 0,4
21.01.2018 12:00:00 3,4 1,6 11 6 21 11 ZZO 1017,1 - 0,0
21.01.2018 11:00:00 3,0 1,0 12 7 19 10 ZZO 1017,4 - 0,0
21.01.2018 10:00:00 2,8 1,0 8 5 16 9 ZO 1017,4 6 0,0
21.01.2018 09:00:00 2,8 1,0 8 4 13 7 ZO 1016,6 - 0,0
21.01.2018 08:00:00 3,0 1,0 6 3 9 5 ZO 1016,1 - 0,0
21.01.2018 07:00:00 3,0 0,7 4 2 14 8 NO 1015,4 10 0,0
21.01.2018 06:00:00 2,7 0,8 7 4 16 8 N 1014,9 - 0,0
21.01.2018 05:00:00 3,1 1,1 6 4 21 11 N 1014,5 - 0,0
21.01.2018 04:00:00 3,2 1,4 15 8 29 15 NNW 1014,0 7 0,0
21.01.2018 03:00:00 3,4 1,6 18 10 31 17 NNW 1013,3 - 0,0
21.01.2018 02:00:00 3,7 2,1 18 10 36 19 N 1012,0 - 0,0
21.01.2018 01:00:00 3,9 2,7 22 12 45 24 N 1010,5 - 0,0
21.01.2018 00:00:00 4,4 3,5 23 13 45 24 N 1008,8 - 0,2
20.01.2018 23:00:00 4,9 4,2 14 8 34 18 N 1006,8 - 0,2
20.01.2018 22:00:00 4,9 4,2 10 6 27 14 NO 1005,2 - 0,0
20.01.2018 21:00:00 5,0 4,4 9 5 18 10 NNO 1003,3 - 0,0
20.01.2018 20:00:00 5,4 4,7 9 5 21 11 NNO 1001,6 - 0,2
20.01.2018 19:00:00 5,6 4,9 8 4 12 6 ONO 1000,0 5 0,2
20.01.2018 18:00:00 5,6 4,7 6 3 11 6 OZO 999,2 - 0,2
20.01.2018 17:00:00 5,8 4,6 5 3 9 5 Z 998,9 - 0,0
20.01.2018 16:00:00 5,8 4,6 5 3 12 7 Z 998,3 10 0,0
20.01.2018 15:00:00 5,6 4,9 7 4 14 8 O 997,9 - 0,0
20.01.2018 14:00:00 5,2 4,5 5 3 17 9 O 998,2 - 0,2
20.01.2018 13:00:00 5,0 4,4 10 5 19 11 OZO 998,9 - 0,6
20.01.2018 12:00:00 4,7 4,0 10 5 25 14 ZO 1000,2 - 0,2
20.01.2018 11:00:00 4,6 3,7 13 7 29 15 ZO 1000,7 - 0,8
20.01.2018 10:00:00 4,5 3,5 16 9 30 16 ZZO 1001,8 6 0,2
20.01.2018 09:00:00 4,5 3,2 15 8 32 17 ZO 1003,0 - 0,6
20.01.2018 08:00:00 5,1 2,9 19 10 36 20 Z 1004,0 - 1,0
20.01.2018 07:00:00 5,9 3,4 21 11 40 21 ZW 1005,1 10 0,4
20.01.2018 06:00:00 6,7 3,3 11 6 27 14 W 1006,0 - 0,0
20.01.2018 05:00:00 6,8 2,9 18 10 40 22 W 1007,2 - 0,0
20.01.2018 04:00:00 6,9 2,4 27 15 47 26 W 1008,5 - 0,0
20.01.2018 03:00:00 6,9 2,2 26 14 48 26 W 1009,4 - 0,0
20.01.2018 02:00:00 6,5 1,4 31 17 52 28 W 1010,2 - 0,0
20.01.2018 01:00:00 6,1 1,2 37 20 58 32 W 1010,4 16 0,0
20.01.2018 00:00:00 6,1 0,8 38 20 55 30 W 1010,9 - 0,0
19.01.2018 23:00:00 6,2 0,7 37 20 63 34 W 1010,9 - 0,0
19.01.2018 22:00:00 6,3 0,2 44 24 62 33 W 1010,9 16 0,0
19.01.2018 21:00:00 6,1 0,8 45 24 62 34 W 1010,4 - 0,0
19.01.2018 20:00:00 6,5 0,8 41 22 62 34 W 1010,2 - 0,0
19.01.2018 19:00:00 6,8 0,5 41 22 57 31 W 1010,2 16 0,0
19.01.2018 18:00:00 6,6 0,5 35 19 56 30 W 1010,3 - 0,0
19.01.2018 17:00:00 6,5 1,0 35 19 56 31 W 1010,4 - 0,0
19.01.2018 16:00:00 6,3 0,8 35 19 51 27 W 1010,2 16 0,0
19.01.2018 15:00:00 6,3 0,8 36 19 58 32 W 1010,4 - 0,0
19.01.2018 14:00:00 6,4 0,3 36 19 55 30 W 1010,6 - 0,0
19.01.2018 13:00:00 6,0 1,1 32 17 49 26 W 1011,1 14 0,0
19.01.2018 12:00:00 5,9 0,6 29 16 39 21 W 1010,9 - 0,0
19.01.2018 11:00:00 5,3 0,8 28 15 40 21 W 1010,7 - 0,0
19.01.2018 10:00:00 5,1 0,7 19 10 39 21 WNW 1010,4 - 0,0
19.01.2018 09:00:00 4,8 0,4 28 15 40 22 W 1010,0 - 0,0
19.01.2018 08:00:00 4,9 0,3 25 14 41 22 WNW 1009,6 - 0,0
19.01.2018 07:00:00 4,8 0,6 26 14 43 23 WNW 1009,2 14 0,0
19.01.2018 06:00:00 5,1 1,0 29 16 44 24 W 1009,1 - 0,0
19.01.2018 05:00:00 5,0 0,9 27 14 48 26 WNW 1008,9 - 0,0
19.01.2018 04:00:00 5,2 1,1 31 17 48 26 W 1008,8 - 0,0
19.01.2018 03:00:00 5,5 1,2 36 19 51 28 W 1008,4 - 0,0
19.01.2018 02:00:00 5,4 0,9 35 19 56 31 W 1007,9 - 0,0
19.01.2018 01:00:00 5,3 0,7 35 19 54 29 W 1007,5 - 0,0
19.01.2018 00:00:00 5,7 0,8 37 20 56 30 WNW 1007,0 - 0,0
18.01.2018 23:00:00 6,0 1,9 35 19 57 31 WNW 1006,1 - 0,0
18.01.2018 22:00:00 6,4 2,7 36 19 62 33 W 1005,4 13 0,0
18.01.2018 21:00:00 6,8 2,9 43 23 65 35 W 1004,7 - 0,0
18.01.2018 20:00:00 7,2 3,2 46 25 70 38 W 1003,9 - 0,0
18.01.2018 19:00:00 7,5 3,4 45 24 67 36 W 1003,1 13 0,0
18.01.2018 18:00:00 8,0 4,6 38 20 56 31 W 1002,9 - 0,0
18.01.2018 17:00:00 7,9 4,3 36 19 59 32 W 1003,1 - 0,0
18.01.2018 16:00:00 8,3 4,1 40 22 61 33 W 1003,2 14 0,0
18.01.2018 15:00:00 8,2 3,8 37 20 57 31 W 1003,0 - 0,0
18.01.2018 14:00:00 8,1 3,0 38 20 59 32 W 1003,3 - 0,0
18.01.2018 13:00:00 8,0 2,9 42 23 64 34 W 1003,6 12 0,0
18.01.2018 12:00:00 7,8 2,5 45 24 69 38 W 1003,6 - 0,0
18.01.2018 11:00:00 7,8 2,5 48 26 68 37 W 1002,7 - 0,0
18.01.2018 10:00:00 8,0 3,1 49 27 91 49 W 1001,3 11 0,0
18.01.2018 09:00:00 8,7 2,9 63 34 108 58 W 999,2 - 0,0
18.01.2018 08:00:00 9,6 5,4 62 34 110 59 W 996,9 - 0,0
18.01.2018 07:00:00 10,7 7,4 70 38 111 60 WZW 994,7 11 0,0
18.01.2018 06:00:00 10,4 8,7 64 35 112 61 WZW 994,5 - 0,3
18.01.2018 05:00:00 9,7 8,9 68 37 105 57 WZW 995,1 - 0,6
18.01.2018 04:00:00 8,4 7,8 63 34 96 52 ZW 996,9 10 0,4
18.01.2018 03:00:00 7,6 6,8 51 28 93 50 ZW 998,7 - 1,0
18.01.2018 02:00:00 6,9 6,0 50 27 83 45 ZZW 1000,7 - 2,2
18.01.2018 01:00:00 6,8 5,7 43 23 75 40 ZW 1003,9 - 1,2
18.01.2018 00:00:00 6,7 4,9 29 16 58 32 ZW 1006,3 - 0,4
17.01.2018 23:00:00 7,2 2,5 41 22 70 38 WZW 1008,1 - 0,0
17.01.2018 22:00:00 7,6 2,5 34 19 67 36 W 1009,2 - 0,0
17.01.2018 21:00:00 7,0 1,9 45 24 72 39 W 1010,1 - 0,0
17.01.2018 20:00:00 7,2 0,4 50 27 79 43 W 1010,0 - 0,0
17.01.2018 19:00:00 7,1 1,8 45 25 87 47 W 1010,2 10 0,0
17.01.2018 18:00:00 7,2 0,6 47 26 80 43 W 1010,0 - 0,0
17.01.2018 17:00:00 7,0 0,9 52 28 80 43 W 1009,8 - 0,0
17.01.2018 16:00:00 6,9 1,0 51 28 77 42 W 1009,3 10 0,0
17.01.2018 15:00:00 6,9 0,1 53 28 78 42 W 1008,9 - 0,0
17.01.2018 14:00:00 6,9 0,3 49 26 67 36 W 1008,8 - 0,0
17.01.2018 13:00:00 6,5 0,4 48 26 82 44 W 1008,4 - 0,0
17.01.2018 12:00:00 6,1 -0,9 53 29 82 44 W 1008,0 - 0,0
17.01.2018 11:00:00 5,7 0,0 46 25 93 50 WNW 1006,7 - 0,0
17.01.2018 10:00:00 5,3 -0,5 48 26 90 48 WNW 1005,2 10 0,0
17.01.2018 09:00:00 4,8 -0,6 54 29 86 46 WNW 1004,1 - 0,0
17.01.2018 08:00:00 4,5 -1,1 53 29 88 47 WNW 1002,6 - 0,0
17.01.2018 07:00:00 4,5 -1,3 63 34 95 51 W 1001,6 20 0,0
17.01.2018 06:00:00 4,2 -1,4 57 31 101 54 WNW 1000,5 - 0,0
17.01.2018 05:00:00 4,2 -1,0 68 37 100 54 W 999,2 - 0,0
17.01.2018 04:00:00 4,5 -1,1 66 36 100 54 W 998,5 - 0,0
17.01.2018 03:00:00 4,5 -1,1 67 36 95 51 W 997,8 - 0,0
17.01.2018 02:00:00 4,8 -0,6 67 36 99 53 W 996,6 - 0,0
17.01.2018 01:00:00 5,9 -0,6 56 31 90 48 W 996,1 7 0,0
17.01.2018 00:00:00 5,6 -0,5 58 32 90 48 W 996,2 - 0,0
16.01.2018 23:00:00 5,8 1,5 49 27 77 42 W 995,5 - 0,0
16.01.2018 22:00:00 6,0 0,9 54 29 82 44 W 995,5 7 0,0
16.01.2018 21:00:00 6,8 2,5 51 27 73 39 W 995,6 - 0,0
16.01.2018 20:00:00 6,6 2,5 38 21 73 40 W 995,9 - 0,0
16.01.2018 19:00:00 6,7 2,2 38 21 68 37 WZW 996,2 - 0,0
16.01.2018 18:00:00 6,9 0,6 49 26 74 40 W 996,9 - 0,0
16.01.2018 17:00:00 6,9 0,3 47 25 79 43 W 997,0 - 0,0
16.01.2018 16:00:00 7,1 1,0 50 27 78 42 W 997,3 16 0,0
16.01.2018 15:00:00 7,4 1,9 51 27 87 47 W 997,2 - 0,0
16.01.2018 14:00:00 7,3 1,6 48 26 83 45 W 997,5 - 0,0
16.01.2018 13:00:00 7,0 1,7 52 28 83 45 W 998,0 16 0,0
16.01.2018 12:00:00 6,9 2,6 51 27 80 43 W 998,1 - 0,0
16.01.2018 11:00:00 7,5 1,3 48 26 83 45 W 997,5 - 0,0
16.01.2018 10:00:00 7,2 0,8 59 32 86 46 W 997,2 16 0,0
16.01.2018 09:00:00 6,8 2,1 57 31 89 48 W 996,5 - 0,0
16.01.2018 08:00:00 7,1 3,2 51 28 74 40 W 995,4 - 0,0
16.01.2018 07:00:00 7,7 3,7 48 26 75 41 W 994,6 6 0,0
16.01.2018 06:00:00 8,0 4,2 49 26 81 44 W 994,4 - 0,0
16.01.2018 05:00:00 8,0 4,6 41 22 74 40 W 994,6 - 0,0
16.01.2018 04:00:00 8,4 5,1 47 26 72 39 W 995,0 - 0,0
16.01.2018 03:00:00 8,5 4,5 42 23 66 36 W 995,0 - 0,0
16.01.2018 02:00:00 8,1 4,5 36 19 69 37 W 995,7 - 0,0
16.01.2018 01:00:00 7,8 5,1 34 19 64 34 WZW 996,4 6 0,0
16.01.2018 00:00:00 7,8 3,8 46 25 82 45 W 997,0 - 0,0
15.01.2018 23:00:00 8,3 4,7 50 27 77 42 W 996,8 - 0,0
15.01.2018 22:00:00 8,1 4,3 49 27 77 41 W 996,4 6 0,0
15.01.2018 21:00:00 8,1 4,5 42 23 73 40 W 996,4 - 0,0
15.01.2018 20:00:00 8,7 5,4 51 28 80 43 W 995,5 - 0,0
15.01.2018 19:00:00 9,0 7,1 44 24 68 37 W 994,3 6 0,2
15.01.2018 18:00:00 9,1 8,0 40 21 70 38 W 993,8 - 0,2
15.01.2018 17:00:00 9,4 8,6 44 24 77 42 WZW 993,3 - 0,2
15.01.2018 16:00:00 8,8 8,3 43 23 77 42 ZW 993,7 - 0,2
15.01.2018 15:00:00 7,6 7,0 40 21 84 45 ZZW 994,8 - 2,5
15.01.2018 14:00:00 7,3 6,6 42 23 77 41 Z 996,4 - 2,2
15.01.2018 13:00:00 6,7 6,0 39 21 74 40 Z 998,8 - -

tt = temperatuur
td = dauwpunt
ff = windsnelheid
fx = windstoten
dd = windrichting
ppp = luchtdruk
vv = zicht
rr = neerslag

Weerstations in de omgeving